Total_Precipitation_Accumulation
0.06 0.09 0.20 0.18 0.19 0.18 0.17 0.17 0.18 0.21 0.27 0.32 0.29 0.25 0.25 0.26 0.26 0.23 0.28 0.30 0.32 0.34 0.32 0.32 0.34 0.35 0.37 0.35 0.25 0.13 0.08 0.07 0.05 0.05 0.06 0.08 0.09 0.11 0.10 0.11 0.12 0.13 0.16
0.05 0.09 0.18 0.18 0.19 0.19 0.20 0.19 0.18 0.21 0.27 0.34 0.34 0.33 0.32 0.33 0.31 0.29 0.28 0.30 0.32 0.31 0.32 0.29 0.25 0.20 0.16 0.12 0.08 0.05 0.05 0.03 0.01 0.01 0.02 0.03 0.06 0.08 0.07 0.07 0.10 0.14 0.17
0.06 0.10 0.17 0.19 0.21 0.20 0.20 0.19 0.18 0.22 0.29 0.33 0.36 0.40 0.38 0.35 0.34 0.35 0.36 0.33 0.35 0.31 0.31 0.24 0.18 0.14 0.10 0.06 0.04 0.03 0.03 0.01 0.01 0.01 0.02 0.03 0.05 0.08 0.07 0.07 0.11 0.17 0.19
0.07 0.10 0.14 0.20 0.22 0.22 0.22 0.22 0.21 0.24 0.29 0.34 0.38 0.41 0.39 0.39 0.40 0.39 0.37 0.32 0.32 0.27 0.24 0.17 0.13 0.11 0.08 0.06 0.05 0.03 0.02 0.01 0.01 0.02 0.03 0.04 0.05 0.10 0.10 0.10 0.13 0.15 0.15
0.11 0.13 0.20 0.26 0.27 0.26 0.24 0.25 0.26 0.27 0.31 0.37 0.44 0.48 0.46 0.46 0.46 0.41 0.34 0.29 0.24 0.20 0.19 0.15 0.09 0.08 0.06 0.05 0.04 0.03 0.03 0.02 0.01 0.01 0.01 0.02 0.05 0.10 0.11 0.11 0.13 0.15 0.14
0.18 0.21 0.28 0.33 0.36 0.33 0.29 0.26 0.29 0.32 0.33 0.37 0.45 0.50 0.49 0.48 0.50 0.43 0.36 0.25 0.19 0.17 0.17 0.14 0.10 0.09 0.07 0.05 0.05 0.05 0.04 0.03 0.01 0.01 0.01 0.02 0.04 0.10 0.10 0.11 0.14 0.17 0.19
0.29 0.35 0.37 0.40 0.41 0.42 0.40 0.34 0.30 0.33 0.36 0.39 0.46 0.47 0.50 0.48 0.49 0.50 0.40 0.24 0.16 0.16 0.17 0.15 0.13 0.12 0.10 0.08 0.08 0.08 0.07 0.04 0.01 0.01 0.02 0.03 0.05 0.10 0.12 0.13 0.14 0.17 0.19
0.44 0.52 0.52 0.53 0.47 0.44 0.43 0.45 0.40 0.39 0.40 0.45 0.52 0.50 0.50 0.51 0.50 0.51 0.43 0.29 0.20 0.17 0.18 0.18 0.16 0.15 0.14 0.11 0.10 0.10 0.09 0.05 0.02 0.01 0.02 0.03 0.05 0.09 0.11 0.12 0.13 0.14 0.15
0.73 0.76 0.69 0.62 0.53 0.48 0.44 0.44 0.45 0.44 0.44 0.50 0.55 0.52 0.51 0.48 0.49 0.48 0.42 0.31 0.25 0.22 0.23 0.22 0.20 0.17 0.15 0.14 0.12 0.10 0.08 0.05 0.03 0.02 0.02 0.02 0.05 0.09 0.11 0.13 0.14 0.14 0.15
0.99 1.01 0.93 0.80 0.70 0.60 0.53 0.43 0.41 0.43 0.42 0.45 0.45 0.39 0.38 0.41 0.45 0.41 0.32 0.27 0.24 0.22 0.22 0.21 0.20 0.19 0.17 0.14 0.11 0.09 0.07 0.05 0.03 0.03 0.03 0.03 0.06 0.12 0.16 0.18 0.17 0.15 0.13
1.17 1.14 1.13 1.01 0.86 0.73 0.60 0.47 0.42 0.41 0.39 0.39 0.37 0.30 0.30 0.34 0.39 0.32 0.23 0.20 0.24 0.25 0.23 0.21 0.20 0.20 0.17 0.11 0.09 0.08 0.07 0.05 0.04 0.04 0.04 0.06 0.11 0.18 0.18 0.15 0.13 0.12 0.12
1.20 1.17 1.18 1.09 1.00 0.91 0.73 0.56 0.52 0.47 0.42 0.36 0.32 0.31 0.30 0.31 0.35 0.29 0.26 0.22 0.23 0.25 0.24 0.24 0.24 0.23 0.20 0.14 0.11 0.10 0.08 0.06 0.06 0.05 0.06 0.09 0.13 0.16 0.15 0.13 0.12 0.12 0.12
1.32 1.34 1.29 1.22 1.11 1.06 0.98 0.72 0.55 0.50 0.49 0.45 0.37 0.34 0.35 0.36 0.38 0.37 0.33 0.29 0.26 0.22 0.21 0.21 0.23 0.20 0.18 0.17 0.15 0.13 0.11 0.11 0.09 0.08 0.08 0.08 0.10 0.14 0.16 0.16 0.15 0.14 0.12
1.42 1.40 1.37 1.36 1.23 1.09 1.01 0.89 0.71 0.56 0.50 0.49 0.43 0.38 0.40 0.40 0.37 0.34 0.31 0.28 0.29 0.26 0.23 0.22 0.21 0.18 0.17 0.17 0.17 0.16 0.14 0.13 0.11 0.10 0.10 0.11 0.10 0.13 0.17 0.19 0.19 0.18 0.16
1.37 1.44 1.41 1.40 1.32 1.16 1.07 0.95 0.83 0.70 0.60 0.58 0.55 0.48 0.43 0.42 0.38 0.34 0.31 0.33 0.35 0.34 0.31 0.27 0.24 0.23 0.21 0.20 0.18 0.17 0.18 0.17 0.15 0.13 0.12 0.12 0.11 0.11 0.14 0.19 0.23 0.25 0.25
1.18 1.35 1.40 1.40 1.41 1.34 1.14 1.00 0.88 0.75 0.64 0.64 0.61 0.54 0.54 0.51 0.49 0.44 0.39 0.35 0.35 0.36 0.37 0.35 0.32 0.31 0.28 0.25 0.22 0.20 0.18 0.19 0.19 0.18 0.16 0.15 0.12 0.11 0.11 0.16 0.23 0.30 0.33
1.10 1.29 1.30 1.37 1.45 1.42 1.31 1.16 0.93 0.83 0.69 0.61 0.62 0.61 0.60 0.57 0.54 0.52 0.48 0.43 0.39 0.40 0.42 0.43 0.44 0.44 0.38 0.32 0.28 0.26 0.24 0.24 0.24 0.23 0.22 0.20 0.17 0.14 0.14 0.16 0.22 0.32 0.39
1.21 1.30 1.34 1.32 1.45 1.45 1.42 1.39 1.20 0.97 0.80 0.68 0.67 0.70 0.66 0.63 0.62 0.60 0.55 0.46 0.41 0.49 0.51 0.48 0.45 0.44 0.38 0.32 0.27 0.26 0.25 0.25 0.25 0.27 0.30 0.31 0.27 0.23 0.19 0.17 0.18 0.26 0.35
1.28 1.32 1.46 1.42 1.46 1.55 1.56 1.56 1.47 1.29 1.05 0.87 0.75 0.70 0.69 0.66 0.66 0.69 0.64 0.59 0.54 0.48 0.49 0.52 0.48 0.43 0.40 0.37 0.33 0.29 0.25 0.24 0.23 0.24 0.25 0.28 0.30 0.30 0.27 0.24 0.23 0.23 0.30
1.30 1.38 1.52 1.55 1.56 1.71 1.80 1.82 1.77 1.52 1.26 1.11 0.94 0.81 0.76 0.78 0.75 0.74 0.75 0.74 0.74 0.67 0.56 0.52 0.50 0.47 0.43 0.45 0.47 0.43 0.37 0.32 0.29 0.27 0.26 0.26 0.25 0.26 0.26 0.23 0.22 0.22 0.24
1.29 1.39 1.48 1.57 1.63 1.77 1.78 1.77 1.76 1.59 1.40 1.24 1.12 1.03 0.97 0.95 0.97 0.92 0.86 0.90 0.91 0.85 0.75 0.70 0.67 0.63 0.59 0.58 0.59 0.51 0.44 0.42 0.39 0.34 0.33 0.34 0.32 0.31 0.29 0.27 0.24 0.22 0.20
1.11 1.28 1.41 1.51 1.65 1.66 1.66 1.77 1.90 1.98 1.80 1.52 1.37 1.24 1.14 1.10 1.10 1.06 1.03 1.01 1.01 1.02 1.00 0.96 0.93 0.87 0.81 0.81 0.81 0.78 0.62 0.47 0.37 0.33 0.34 0.36 0.35 0.35 0.33 0.31 0.28 0.26 0.23
0.97 1.14 1.36 1.50 1.65 1.67 1.71 1.92 2.07 2.19 2.03 1.73 1.39 1.23 1.22 1.25 1.26 1.17 1.15 1.18 1.13 1.09 1.05 1.05 1.04 1.02 0.96 0.93 0.93 0.98 0.84 0.58 0.40 0.32 0.29 0.30 0.33 0.35 0.36 0.38 0.40 0.38 0.33
0.86 1.00 1.12 1.30 1.50 1.67 1.71 1.75 1.80 1.87 1.83 1.62 1.50 1.42 1.44 1.45 1.44 1.38 1.31 1.30 1.27 1.22 1.12 1.10 1.09 1.05 1.03 0.98 0.95 0.88 0.81 0.66 0.61 0.46 0.32 0.30 0.32 0.33 0.36 0.40 0.44 0.47 0.47
0.75 0.96 1.05 1.14 1.33 1.54 1.65 1.69 1.80 1.76 1.76 1.84 1.80 1.69 1.61 1.56 1.53 1.48 1.43 1.40 1.33 1.27 1.22 1.23 1.20 1.18 1.11 1.06 1.01 0.95 0.93 0.80 0.67 0.65 0.48 0.34 0.35 0.36 0.38 0.42 0.45 0.48 0.50
0.63 0.82 1.02 1.05 1.15 1.29 1.50 1.68 1.73 1.66 1.68 1.72 1.73 1.69 1.68 1.67 1.63 1.54 1.45 1.40 1.34 1.30 1.28 1.28 1.31 1.28 1.23 1.18 1.13 1.07 1.07 1.01 0.86 0.82 0.73 0.51 0.43 0.39 0.38 0.40 0.42 0.45 0.48